Regional Weather Roundup
Issued by NWS

Home | Current Version | Previous Version | Graphics & Text | Print | Product List | Glossary On
Versions: 1 2 3 4 5 6 7 8 9 10 11 12 13 14 15 16 17 18 19 20 21 22 23 24 25 26 27 28 29 30 31 32 33 34 35 36 37 38 39 40 41 42 43 44 45 46 47 48
000
ASUS45 KBOU 041907
RWRCO

WEATHER ROUNDUP FOR COLORADO
NATIONAL WEATHER SERVICE DENVER/BOULDER CO
100 PM MDT FRI SEP 04 2015

NOTE: "FAIR" INDICATES FEW OR NO CLOUDS BELOW 12000 FEET WITH NO
SIGNIFICANT WEATHER AND/OR OBSTRUCTIONS TO VISIBILITY.

COZ001>005-013-030-031-042000-
...NORTHWEST COLORADO...

CITY           SKY/WX    TMP DP  RH WIND       PRES   REMARKS
CRAIG          PTSUNNY   75  44  33 SW13G23   30.07S
HAYDEN         PTSUNNY   63  46  55 SE22G29   30.11S
MEEKER         PTSUNNY   72  45  37 S10       30.10F
MOUNT WERNER   NOT AVBL
STEAMBOAT SPGS CLOUDY    58  47  67 SE14G22   30.19R
WALDEN         PTSUNNY   68  36  30 S9        30.20S
$$

COZ006>008-011-042000-
...WEST CENTRAL VALLEYS...

CITY           SKY/WX    TMP DP  RH WIND       PRES   REMARKS
GRAND JUNCTION PTSUNNY   74  48  39 SE15      30.02F
MONTROSE       CLOUDY    71  51  49 VRB5      30.11F
EAGLE          NOT AVBL
RIFLE          CLOUDY    68  52  56 E9        30.08F
DELTA          CLOUDY    76  48  37 E5        30.07F HAZE
NUCLA          CLOUDY    72  46  40 NW6       30.14F
$$

COZ017>023-064>068-042000-
...SOUTHWEST COLORADO...

CITY           SKY/WX    TMP DP  RH WIND       PRES   REMARKS
DURANGO        CLOUDY    69  47  45 SE9       30.19F
CORTEZ         PTSUNNY   74  49  41 W6        30.10F
PAGOSA SPRINGS LGT RAIN  61  49  62 N3        30.27S
TELLURIDE      CLOUDY    58  46  63 CALM      30.32S
WOLF CREEK PAS NOT AVBL
$$

COZ009-010-012-014-032>034-037-058>063-042000-
...CENTRAL COLORADO...

CITY           SKY/WX    TMP DP  RH WIND       PRES   REMARKS
ASPEN          CLOUDY    59  50  72 NW6       30.22F
BUENA VISTA    PTSUNNY   65  44  47 CALM      30.22F
COPPER MTN     DRIZZLE   52  37  58 NW3       30.50F
BERTHOUD PASS  CLOUDY    45  32  61 MISG      30.55F
COTTONWOOD PAS PTSUNNY   61  41  48 E6        30.35F
GUNNISON       CLOUDY    54  48  82 SW5       30.28R
KREMMLING      LGT RAIN  54  45  71 CALM      30.24S
LEADVILLE      CLOUDY    54  38  54 CALM      30.34F
MONARCH PASS   CLOUDY    50  37  62 S10       30.60F
SALIDA         CLOUDY    71  40  31 S8        30.26F
SUNLIGHT       CLOUDY    52  45  76 CALM      30.43F
WILKERSON PASS CLOUDY    59  32  36 CALM      30.48F
$$

COZ069>075-042000-
...SAN LUIS VALLEY/SANGRE DE CRISTO MOUNTAINS...

CITY           SKY/WX    TMP DP  RH WIND       PRES   REMARKS
ALAMOSA        CLOUDY    69  46  43 SW6       30.21F
LA VETA PASS   NOT AVBL
SAGUACHE       CLOUDY    68  46  45 S7        30.25F
$$

COZ035-036-038>040-042000-
...NORTHERN COLORADO FRONT RANGE...

CITY           SKY/WX    TMP DP  RH WIND       PRES   REMARKS
DENVER INTL AP PTSUNNY   87  38  17 SE16G23   30.00F
DMNS CITY PARK   N/A     83  39  21 SE6G16    30.00F
AURORA         PTSUNNY   85  42  22 SE9G20    30.03F
FRONT RANGE AP PTSUNNY   86  36  16 MISG      30.03F
ERIE MUNI ARPT MOSUNNY   86  37  17 SE9G18    29.99F
BOULDER MUN AP MOSUNNY   86  41  20 E8        30.00F
CENTENNIAL     CLOUDY    81  42  25 SE8G17    30.05F
BROOMFIELD     PTSUNNY   84  41  21 SE9       30.04F
FORT COLLINS   MOSUNNY   86  48  26 SE8       29.99F
LONGMONT       MOSUNNY   87  43  21 E6        30.00F
$$

COZ041-046-047-076>085-087-088-042000-
...PIKES PEAK/PALMER DIVIDE AND SOUTHERN FOOTHILLS...

CITY           SKY/WX    TMP DP  RH WIND       PRES   REMARKS
COLO. SPRINGS  CLOUDY    77  46  33 VRB5      30.10F
A. F. ACADEMY  CLOUDY    75  48  37 S9        30.11F
ELLICOTT       CLOUDY   N/A N/A N/A S12       30.09S
FALCON         CLOUDY    77  43  29 S5        30.15F
FORT CARSON    CLOUDY    77  50  38 VRB6      30.06F
LIMON          MOSUNNY   85  41  21 S8G18     30.03F
MONUMENT HILL  PTSUNNY   73  41  31 S12       30.16S
TRINIDAD       PTSUNNY   85  42  22 S15G22    30.05F
$$

COZ042>045-048>051-090-091-042000-
...NORTHEAST COLORADO...

CITY           SKY/WX    TMP DP  RH WIND       PRES   REMARKS
GREELEY ARPT   MOSUNNY   86  45  23 E6        29.98F
AKRON          SUNNY     89  37  16 MISG      29.97F
BURLINGTON     SUNNY     90  43  19 VRB3      29.96F
WRAY           CLOUDY    93  45  19 NW3       29.91F
STERLING       SUNNY     88  54  31 S9        29.92F
HOLYOKE        MOSUNNY   91  54  27 S6        29.91F
FORT MORGAN    SUNNY     87  38  17 SE6       29.97F
$$

COZ086-089-092>099-042000-
...SOUTHEAST COLORADO...

CITY           SKY/WX    TMP DP  RH WIND       PRES   REMARKS
PUEBLO         CLOUDY    85  47  26 SE8       29.99F
LA JUNTA       PTSUNNY   91  49  23 S9G17     29.95F
LAMAR          SUNNY     91  52  26 CALM      29.91F
SPRINGFIELD      N/A     90  50  25 S14       29.98S
$$



USA.gov is the U.S. government's official web portal to all federal, state and local government web resources and services.